Overview Statistics Trail Chart Weather Telemetry Raw packets
 

This is the latest recevied weather packets stored in our database for station/object W4UWO. If no packets are shown the sender has not sent any weather packets the latest 10 day(s).

<< 21 22 23 24 25 26 27 >>
Time Temp. Humidity Pressure Rain* Wind** Luminosity Snow
1788476312 37.22° C 38% 1015.2 hPa 0 mm - 110 W/m² -
1788476008 37.22° C 39% 1015.3 hPa 0 mm - 116 W/m² -
1788475704 37.22° C 39% 1015.2 hPa 0 mm - 133 W/m² -
1788475400 37.22° C 40% 1015.1 hPa 0 mm - 142 W/m² -
1788475096 37.78° C 38% 1015.2 hPa 0 mm - 159 W/m² -
1788474794 38.33° C 37% 1015 hPa 0 mm - 170 W/m² -
1788474489 37.78° C 37% 1015.2 hPa 0 mm - 181 W/m² -
1788474188 37.78° C 37% 1014.8 hPa 0 mm - 198 W/m² -
1788473883 37.78° C 38% 1015.2 hPa 0 mm - 229 W/m² -
1788473582 38.33° C 38% 1015.1 hPa 0 mm - 240 W/m² -
1788473280 38.33° C 37% 1015.2 hPa 0 mm - 253 W/m² -
1788472975 38.89° C 35% 1015.1 hPa 0 mm - 270 W/m² -
1788472673 38.89° C 34% 1015.2 hPa 0 mm - 287 W/m² -
1788472370 38.89° C 35% 1015.4 hPa 0 mm - 310 W/m² -
1788472068 38.33° C 35% 1015.1 hPa 0 mm - 334 W/m² -
1788471764 38.33° C 35% 1015.3 hPa 0 mm - 365 W/m² -
1788471464 38.33° C 35% 1015.3 hPa 0 mm - 385 W/m² -
1788471160 38.33° C 35% 1015.4 hPa 0 mm - 393 W/m² -
1788470856 38.33° C 37% 1015.4 hPa 0 mm - 411 W/m² -
1788470553 38.33° C 36% 1015.5 hPa 0 mm - 413 W/m² -
1788470251 38.89° C 34% 1015.6 hPa 0 mm - 432 W/m² -
1788469948 39.44° C 34% 1015.5 hPa 0 mm - 446 W/m² -
1788469644 38.89° C 33% 1015.6 hPa 0 mm - 470 W/m² -
1788469339 38.89° C 33% 1015.6 hPa 0 mm - 492 W/m² -
1788469038 38.33° C 33% 1015.9 hPa 0 mm - 484 W/m² -

* Rain latest hour (hover to see other rain measurements)
** Current wind speed in m/s (hover to see current wind gust speed)